| time (UTC) | temp F | wind direction | speed MPH | gust MPH | rain 1hr in | rain 24hr in | rain mn in | humidity % | barometer mb |
| 20260903133111 | 68 | 194 | 1.0 | 2.0 | 0.01 | 0.22 | 0.22 | 100 | 1015.4 |
| 20260903131610 | 67 | 146 | 0.0 | 4.0 | 0.02 | 0.22 | 0.22 | 100 | 1015.4 |
| 20260903130120 | 67 | 116 | 1.0 | 4.0 | 0.02 | 0.22 | 0.22 | 100 | 1015.6 |
| 20260903124553 | 67 | 0 | 1.0 | 3.0 | 0.02 | 0.21 | 0.21 | 100 | 1015.8 |
| 20260903123100 | 66 | 136 | 0.0 | 5.0 | 0.03 | 0.21 | 0.21 | 100 | 1015.9 |
| 20260903121558 | 66 | 0 | 0.0 | 5.0 | 0.03 | 0.20 | 0.20 | 100 | 1016.1 |
| 20260903120055 | 66 | 0 | 1.0 | 4.0 | 0.05 | 0.20 | 0.20 | 100 | 1016.3 |
| 20260903114548 | 66 | 0 | 1.0 | 4.0 | 0.05 | 0.19 | 0.19 | 100 | 1016.4 |
| 20260903113101 | 65 | 0 | 0.0 | 4.0 | 0.04 | 0.18 | 0.18 | 100 | 1016.5 |
| 20260903111606 | 65 | 0 | 0.0 | 4.0 | 0.03 | 0.17 | 0.17 | 100 | 1016.2 |
| 20260903110051 | 65 | 0 | 0.0 | 2.0 | 0.01 | 0.15 | 0.15 | 100 | 1016.2 |
| 20260903104549 | 65 | 0 | 1.0 | 3.0 | 0.00 | 0.14 | 0.14 | 100 | 1016.1 |
| 20260903103101 | 64 | 146 | 0.0 | 4.0 | 0.00 | 0.14 | 0.14 | 100 | 1016.0 |
| 20260903101603 | 64 | 0 | 0.0 | 3.0 | 0.00 | 0.14 | 0.14 | 100 | 1016.1 |
| 20260903100054 | 64 | 0 | 0.0 | 2.0 | 0.02 | 0.14 | 0.14 | 100 | 1016.2 |
| 20260903094554 | 64 | 0 | 0.0 | 3.0 | 0.06 | 0.14 | 0.14 | 100 | 1016.5 |
| 20260903093112 | 64 | 0 | 0.0 | 2.0 | 0.14 | 0.14 | 0.14 | 100 | 1016.6 |
| 20260903091557 | 64 | 223 | 1.0 | 7.0 | 0.14 | 0.14 | 0.14 | 100 | 1016.9 |
| 20260903090051 | 66 | 113 | 1.0 | 6.0 | 0.12 | 0.12 | 0.12 | 100 | 1017.0 |
| 20260903084601 | 66 | 39 | 0.0 | 4.0 | 0.07 | 0.07 | 0.07 | 100 | 1017.0 |
| 20260903083057 | 66 | 331 | 3.0 | 8.0 | 0.00 | 0.00 | 0.00 | 100 | 1017.1 |
| 20260903081550 | 66 | 0 | 0.0 | 0.0 | 0.00 | 0.00 | 0.00 | 100 | 1016.7 |
| 20260903080051 | 66 | 0 | 0.0 | 3.0 | 0.00 | 0.00 | 0.00 | 100 | 1016.8 |
| 20260903074557 | 66 | 0 | 0.0 | 3.0 | 0.00 | 0.00 | 0.00 | 100 | 1016.8 |
| 20260903073052 | 66 | 0 | 0.0 | 1.0 | 0.00 | 0.00 | 0.00 | 100 | 1016.8 |
| 20260903071547 | 66 | 168 | 1.0 | 3.0 | 0.00 | 0.00 | 0.00 | 100 | 1016.9 |
| 20260903070048 | 66 | 0 | 0.0 | 2.0 | 0.00 | 0.00 | 0.00 | 100 | 1017.3 |
| 20260903064554 | 66 | 0 | 0.0 | 5.0 | 0.00 | 0.00 | 0.00 | 100 | 1017.5 |
| 20260903063050 | 66 | 152 | 1.0 | 5.0 | 0.00 | 0.00 | 0.00 | 100 | 1018.0 |
| 20260903061606 | 66 | 200 | 1.0 | 5.0 | 0.00 | 0.00 | 0.00 | 100 | 1018.5 |
| 20260903060056 | 66 | 140 | 0.0 | 2.0 | 0.00 | 0.00 | 0.00 | 100 | 1018.9 |
| 20260903054559 | 66 | 0 | 0.0 | 2.0 | 0.00 | 0.00 | 0.00 | 100 | 1018.7 |
| 20260903053100 | 66 | 74 | 0.0 | 2.0 | 0.00 | 0.00 | 0.00 | 100 | 1018.6 |
| 20260903051556 | 66 | 0 | 0.0 | 2.0 | 0.00 | 0.00 | 0.00 | 100 | 1018.9 |
| 20260903050052 | 66 | 0 | 0.0 | 2.0 | 0.00 | 0.00 | 0.00 | 100 | 1018.9 |
| 20260903044558 | 65 | 0 | 0.0 | 2.0 | 0.00 | 0.00 | 0.00 | 100 | 1019.0 |
| 20260903043059 | 65 | 0 | 0.0 | 2.0 | 0.00 | 0.00 | 0.00 | 100 | 1019.3 |
| 20260903041557 | 65 | 0 | 0.0 | 2.0 | 0.00 | 0.00 | 0.00 | 100 | 1019.3 |
| 20260903040104 | 65 | 55 | 0.0 | 1.0 | 0.00 | 0.00 | 0.00 | 100 | 1019.3 |
| 20260903034603 | 65 | 0 | 0.0 | 1.0 | 0.00 | 0.00 | 0.00 | 100 | 1020.0 |
| 20260903033057 | 64 | 0 | 0.0 | 1.0 | 0.00 | 0.00 | 0.00 | 100 | 1020.4 |
| 20260903031552 | 64 | 0 | 0.0 | 1.0 | 0.00 | 0.00 | 0.00 | 100 | 1020.2 |
| 20260903030103 | 64 | 0 | 0.0 | 1.0 | 0.00 | 0.00 | 0.00 | 100 | 1020.1 |
| 20260903024558 | 64 | 0 | 0.0 | 1.0 | 0.00 | 0.00 | 0.00 | 99 | 1020.2 |
| 20260903023120 | 64 | 0 | 0.0 | 1.0 | 0.00 | 0.00 | 0.00 | 99 | 1020.3 |
| 20260903021550 | 64 | 0 | 0.0 | 1.0 | 0.00 | 0.00 | 0.00 | 99 | 1020.3 |
| 20260903020059 | 64 | 0 | 0.0 | 2.0 | 0.00 | 0.00 | 0.00 | 99 | 1020.5 |
| 20260903014603 | 63 | 0 | 0.0 | 1.0 | 0.00 | 0.00 | 0.00 | 98 | 1020.6 |
| 20260903013057 | 63 | 0 | 0.0 | 1.0 | 0.00 | 0.00 | 0.00 | 97 | 1020.5 |
| 20260903011552 | 62 | 0 | 0.0 | 4.0 | 0.00 | 0.00 | 0.00 | 96 | 1020.3 |
| 20260903010059 | 62 | 0 | 1.0 | 5.0 | 0.00 | 0.00 | 0.00 | 95 | 1020.5 |
| 20260903004559 | 62 | 180 | 2.0 | 7.0 | 0.00 | 0.00 | 0.00 | 92 | 1020.1 |
| 20260903003051 | 62 | 109 | 1.0 | 8.0 | 0.00 | 0.00 | 0.00 | 90 | 1020.1 |
| 20260903001553 | 62 | 0 | 0.0 | 6.0 | 0.00 | 0.00 | 0.00 | 88 | 1020.2 |
| 20260903000100 | 62 | 120 | 1.0 | 4.0 | 0.00 | 0.00 | 0.00 | 86 | 1020.4 |
| 20260902234606 | 62 | 173 | 1.0 | 5.0 | 0.00 | 0.00 | 0.00 | 84 | 1020.8 |
| 20260902233058 | 62 | 0 | 0.0 | 4.0 | 0.00 | 0.00 | 0.00 | 81 | 1021.1 |
| 20260902231555 | 62 | 168 | 0.0 | 3.0 | 0.00 | 0.00 | 0.00 | 79 | 1021.1 |
| 20260902230100 | 63 | 192 | 0.0 | 6.0 | 0.00 | 0.00 | 0.00 | 77 | 1021.1 |
| 20260902224559 | 64 | 173 | 0.0 | 6.0 | 0.00 | 0.00 | 0.00 | 75 | 1021.5 |
| 20260902223103 | 64 | 120 | 2.0 | 5.0 | 0.00 | 0.00 | 0.00 | 73 | 1021.5 |
| 20260902221605 | 65 | 177 | 1.0 | 5.0 | 0.00 | 0.00 | 0.00 | 71 | 1021.8 |
| 20260902220100 | 65 | 116 | 1.0 | 4.0 | 0.00 | 0.00 | 0.00 | 69 | 1021.8 |
| 20260902214557 | 66 | 150 | 1.0 | 8.0 | 0.00 | 0.00 | 0.00 | 66 | 1021.6 |
| 20260902213053 | 67 | 139 | 1.0 | 6.0 | 0.00 | 0.00 | 0.00 | 65 | 1021.5 |
| 20260902211550 | 67 | 155 | 2.0 | 7.0 | 0.00 | 0.00 | 0.00 | 64 | 1021.8 |
| 20260902210057 | 68 | 104 | 2.0 | 9.0 | 0.00 | 0.00 | 0.00 | 62 | 1021.5 |
| 20260902204559 | 68 | 36 | 3.0 | 7.0 | 0.00 | 0.00 | 0.00 | 61 | 1021.7 |
| 20260902203054 | 68 | 265 | 2.0 | 7.0 | 0.00 | 0.00 | 0.00 | 66 | 1021.8 |
| 20260902201607 | 67 | 204 | 3.0 | 9.0 | 0.00 | 0.00 | 0.00 | 62 | 1021.8 |
| 20260902200058 | 67 | 0 | 1.0 | 8.0 | 0.00 | 0.00 | 0.00 | 61 | 1022.1 |
| 20260902194557 | 67 | 178 | 4.0 | 7.0 | 0.00 | 0.00 | 0.00 | 59 | 1022.4 |
| 20260902193058 | 68 | 153 | 3.0 | 8.0 | 0.00 | 0.00 | 0.00 | 60 | 1022.7 |
| 20260902191601 | 68 | 118 | 1.0 | 6.0 | 0.00 | 0.00 | 0.00 | 60 | 1022.5 |
| 20260902184557 | 67 | 135 | 3.0 | 7.0 | 0.00 | 0.00 | 0.00 | 59 | 1022.2 |
| 20260902183105 | 67 | 132 | 2.0 | 7.0 | 0.00 | 0.00 | 0.00 | 62 | 1022.5 |
| 20260902181555 | 66 | 136 | 2.0 | 7.0 | 0.00 | 0.00 | 0.00 | 62 | 1022.7 |
| 20260902180055 | 66 | 170 | 2.0 | 7.0 | 0.00 | 0.00 | 0.00 | 63 | 1022.9 |
| 20260902174559 | 66 | 40 | 1.0 | 6.0 | 0.00 | 0.00 | 0.00 | 69 | 1022.8 |
| 20260902173057 | 66 | 225 | 2.0 | 6.0 | 0.00 | 0.00 | 0.00 | 69 | 1022.9 |
| 20260902171605 | 66 | 162 | 1.0 | 6.0 | 0.00 | 0.00 | 0.00 | 70 | 1022.8 |
| 20260902170103 | 66 | 201 | 1.0 | 7.0 | 0.00 | 0.00 | 0.00 | 72 | 1022.9 |
| 20260902164601 | 67 | 124 | 3.0 | 8.0 | 0.00 | 0.00 | 0.00 | 73 | 1022.7 |
| 20260902163054 | 66 | 92 | 1.0 | 5.0 | 0.00 | 0.00 | 0.00 | 80 | 1022.8 |
| 20260902161608 | 66 | 148 | 1.0 | 6.0 | 0.00 | 0.00 | 0.00 | 80 | 1023.2 |
| 20260902160116 | 66 | 126 | 0.0 | 5.0 | 0.00 | 0.00 | 0.00 | 81 | 1023.4 |
| 20260902154601 | 66 | 103 | 1.0 | 5.0 | 0.00 | 0.00 | 0.00 | 81 | 1023.5 |
| 20260902153055 | 66 | 117 | 1.0 | 4.0 | 0.00 | 0.00 | 0.00 | 82 | 1023.6 |
| 20260902151609 | 66 | 196 | 1.0 | 7.0 | 0.00 | 0.00 | 0.00 | 82 | 1023.6 |
| 20260902150100 | 66 | 0 | 1.0 | 4.0 | 0.00 | 0.00 | 0.00 | 83 | 1023.5 |
| 20260902144556 | 66 | 0 | 1.0 | 4.0 | 0.00 | 0.00 | 0.00 | 85 | 1023.2 |
| 20260902143053 | 66 | 81 | 2.0 | 7.0 | 0.00 | 0.00 | 0.00 | 88 | 1023.1 |
| 20260902141558 | 66 | 171 | 3.0 | 8.0 | 0.00 | 0.00 | 0.00 | 96 | 1023.1 |
| 20260902140059 | 66 | 70 | 1.0 | 4.0 | 0.00 | 0.00 | 0.00 | 100 | 1023.0 |
| 20260902134556 | 67 | 194 | 0.0 | 4.0 | 0.00 | 0.00 | 0.00 | 100 | 1023.0 |